Change the Weather History Date:

Sunday, October 13, 2013

  Actual Average Record
Temperature  
Mean Temperature 49 °F 48 °F  
Max Temperature 61 °F 58 °F 82 °F (1975)
Min Temperature 37 °F 39 °F 22 °F (1988)
Degree Days  
Heating Degree Days 16 17  
Month to date heating degree days 89 193  
Since 1 July heating degree days 300 463  
Cooling Degree Days 0 0  
Month to date cooling degree days 2 0  
Year to date cooling degree days 535 395  
Growing Degree Days 1 (Base 50)    
Moisture  
Dew Point 40 °F    
Average Humidity 67    
Maximum Humidity 92    
Minimum Humidity 42    
Precipitation  
Precipitation 0.00 in 0.08 in 1.31 in (1898)
Month to date precipitation 1.15 1.07  
Year to date precipitation 28.03 24.51  
Snow  
Snow 0.00 in 0.00 in 2.50 in (1936)
Month to date snowfall 0.0 0.0  
Since 1 July snowfall 0.0 0.0  
Since 1 September snowfall 0.0 0.0  
Snow Depth 0.00 in    
Sea Level Pressure  
Sea Level Pressure 30.31 in    
Wind  
Wind Speed 6 mph (West)    
Max Wind Speed 16 mph    
Max Gust Speed 19 mph    
Visibility 10 miles    
Events      
T = Trace of Precipitation, MM = Missing Value Source: NWS Daily Summary

Daily Weather History Graph

Daily Weather History Graph

Search for Another Location

Airport or City:

Trip Planner

Search our weather history database for the weather conditions in past years. The results will help you decide how hot, cold, wet, or windy it might be!

Date:

Astronomy

Oct. 13, 2013 Rise Set
Actual Time 7:05 AM CDT 6:11 PM CDT
Civil Twilight 6:36 AM CDT 6:40 PM CDT
Nautical Twilight 6:02 AM CDT 7:14 PM CDT
Astronomical Twilight 5:28 AM CDT 7:47 PM CDT
Moon 3:13 PM CDT (10/13) 1:02 AM CDT (10/13)
Length of Visible Light 12h 04m
Length of Day
11h 05m
Waxing Gibbous, 69% of the Moon is Illuminated
Oct 13
Waxing Gibbous
Oct 18
Full
Oct 26
Last Quarter
Nov 3
New
Nov 9
First Quarter

Hourly Weather History & Observations

Time (CDT) Temp. Windchill Dew Point Humidity Pressure Visibility Wind Dir Wind Speed Gust Speed Precip Events Conditions
12:53 AM 48.9 °F - 39.0 °F 69% 30.14 in 10.0 mi WSW 5.8 mph - N/A   Clear
1:53 AM 46.9 °F - 39.0 °F 74% 30.17 in 10.0 mi WSW 4.6 mph - N/A   Clear
2:53 AM 46.9 °F - 39.9 °F 77% 30.18 in 10.0 mi West 10.4 mph - N/A   Clear
3:53 AM 45.0 °F 41.8 °F 39.9 °F 82% 30.19 in 10.0 mi West 5.8 mph - N/A   Scattered Clouds
4:17 AM 46.0 °F 43.9 °F 39.9 °F 79% 30.20 in 10.0 mi SW 4.6 mph - N/A   Mostly Cloudy
4:28 AM 46.0 °F 44.8 °F 41.0 °F 83% 30.20 in 10.0 mi SW 3.5 mph - N/A   Mostly Cloudy
4:53 AM 45.0 °F 41.2 °F 39.9 °F 82% 30.22 in 10.0 mi SSW 6.9 mph - N/A   Partly Cloudy
5:53 AM 43.0 °F 39.5 °F 39.9 °F 89% 30.25 in 10.0 mi SW 5.8 mph - N/A   Partly Cloudy
6:53 AM 46.0 °F 42.5 °F 41.0 °F 83% 30.27 in 10.0 mi WSW 6.9 mph - N/A   Overcast
7:53 AM 46.0 °F 42.5 °F 42.1 °F 86% 30.30 in 10.0 mi WSW 6.9 mph - N/A   Mostly Cloudy
8:53 AM 48.9 °F - 43.0 °F 80% 30.33 in 10.0 mi West 13.8 mph - N/A   Overcast
9:53 AM 51.1 °F - 44.1 °F 77% 30.35 in 10.0 mi WNW 12.7 mph - N/A   Overcast
10:53 AM 55.0 °F - 45.0 °F 69% 30.35 in 10.0 mi WNW 10.4 mph - N/A   Overcast
11:53 AM 54.0 °F - 42.1 °F 64% 30.37 in 10.0 mi NNW 5.8 mph - N/A   Mostly Cloudy
12:53 PM 55.9 °F - 39.0 °F 53% 30.36 in 10.0 mi NW 12.7 mph - N/A   Mostly Cloudy
1:53 PM 57.0 °F - 39.0 °F 51% 30.36 in 10.0 mi WNW 10.4 mph - N/A   Partly Cloudy
2:53 PM 57.9 °F - 37.0 °F 46% 30.35 in 10.0 mi North 11.5 mph - N/A   Scattered Clouds
3:53 PM 60.1 °F - 37.0 °F 42% 30.35 in 10.0 mi NNW 8.1 mph - N/A   Partly Cloudy
4:53 PM 60.1 °F - 37.0 °F 42% 30.34 in 10.0 mi Calm Calm - N/A   Clear
5:53 PM 55.9 °F - 41.0 °F 57% 30.36 in 10.0 mi WNW 4.6 mph - N/A   Clear
6:53 PM 50.0 °F - 39.9 °F 68% 30.39 in 10.0 mi North 3.5 mph - N/A   Clear
7:53 PM 46.0 °F - 39.9 °F 79% 30.40 in 10.0 mi Calm Calm - N/A   Clear
8:53 PM 42.1 °F 40.2 °F 39.0 °F 89% 30.41 in 10.0 mi West 3.5 mph - N/A   Clear
9:53 PM 42.1 °F - 39.0 °F 89% 30.41 in 10.0 mi Calm Calm - N/A   Clear
10:53 PM 41.0 °F - 37.9 °F 89% 30.41 in 10.0 mi Calm Calm - N/A   Clear
11:53 PM 39.0 °F - 37.9 °F 96% 30.42 in 10.0 mi Calm Calm - N/A   Clear